Retour au catalogue

STARLINK-30880

ActifCommunicationsVLEO
NORAD 58232·PAYLOAD·🇺🇸 United States

Lancé Nov 8, 2023 depuis Cape Canaveral Space Force Station

Loading…

Prochains Passages (prochaines 24 heures)

TLE

FraisSource: CelesTrak SupGP

Époque: Sep 15, 2026, 03:08 UTC

1 58232C 23171C   26258.13104167  .00014643  00000+0  53037-3 0  2586
2 58232  43.0013 295.0145 0001345 260.1293  17.9717 15.27572006    13

Suivez STARLINK-30880 en temps réel avec AllMySat

Download on the App Store